FALCON 9 DEB (55444 NORAD) Tracking and Keplerian Element Data

This shows tracking and keplerian element data for the satellite.

Feedback or suggestion? Click here.




ElementValue
Catalog55444
NameFALCON 9 DEB
Epoch Orbit529
Epoch Day63.09045849
Epoch Year2023
RAAN359.7078
Inclination70.0069
Eccentricity0.0006164
Argument of Perigee174.3064
Mean Anonmoly185.8214
Mean Motion15.92833785
Decay Rate0.00386374
L11 55444U 23014BF 23063.09045849 .00386374 61320-4 11151-2 0 9993
L22 55444 70.0069 359.7078 0006164 174.3064 185.8214 15.92833785 5293



Live tracking and technical data element details for FALCON 9 DEB (NORAD 55444). FALCON 9 DEB can be tracked NOW for your location showing map with azimuth and elevation plus other details from your city location.







IsCatalogInMostPopularTable: catalog: 55444, numindb: 1
Update: records affected: 1



GetName: 55444 FALCON 9 DEB

Hit Count: updated at: Mon, 05 Jun 2023 20:50:43 GMT